Weather History for KRHP - December, 2011

Change the Weather History Date:

Tuesday, December 27, 2011

  Actual Average (KTYS) Record (KTYS)
Temperature  
Mean Temperature 44 °F 39 °F  
Max Temperature 51 °F 48 °F 82 °F (1947)
Min Temperature 37 °F 30 °F 5 °F (1925)
Degree Days  
Heating Degree Days 21 26  
Month to date heating degree days 646  
Since 1 July heating degree days 1327  
Cooling Degree Days 0 0  
Month to date cooling degree days 0  
Year to date cooling degree days 1526  
Moisture  
Dew Point 39 °F    
Average Humidity 80    
Maximum Humidity 93    
Minimum Humidity 43    
Precipitation  
Precipitation 0.44 in 0.14 in 1.83 in (1932)
Month to date precipitation 3.97  
Year to date precipitation 47.33  
Snow  
Snow 0.00 in 0.00 in - ()
Month to date snowfall 0.6  
Since 1 July snowfall 0.6  
Snow Depth -    
Sea Level Pressure  
Sea Level Pressure 29.82 in    
Wind  
Wind Speed 10 mph (WSW)    
Max Wind Speed 21 mph    
Max Gust Speed 29 mph    
Visibility 10 miles    
Events Rain    
T = Trace of Precipitation, MM = Missing Value Source: NWS Daily Summary

Daily Weather History Graph

Daily Weather History Graph

Search for Another Location

Airport or City:

Trip Planner

Search our weather history database for the weather conditions in past years. The results will help you decide how hot, cold, wet, or windy it might be!

Date:

Astronomy

Dec. 27, 2011 Rise Set
Actual Time 7:42 AM EST 5:30 PM EST
Civil Twilight 7:14 AM EST 5:58 PM EST
Nautical Twilight 6:42 AM EST 6:30 PM EST
Astronomical Twilight 6:11 AM EST 7:01 PM EST
Moon 9:43 AM EST (12/27) 8:55 PM EST (12/27)
Length of Visible Light 10h 44m
Length of Day
9h 47m
Waxing Crescent, 11% of the Moon is Illuminated
Dec 27
Waxing Crescent
Jan 1
First Quarter
Jan 9
Full
Jan 16
Last Quarter
Jan 23
New

Hourly Weather History & Observations

Time (EST) Temp. Windchill Dew Point Humidity Pressure Visibility Wind Dir Wind Speed Gust Speed Precip Events Conditions
12:15 AM 50.0 °F - 28.4 °F 43% 30.05 in 10.0 mi West 13.8 mph 18.4 mph N/A   Light Drizzle
12:35 AM 46.4 °F 41.5 °F 30.2 °F 53% 30.05 in 10.0 mi West 10.4 mph - N/A Rain Light Rain
12:55 AM 46.4 °F 41.5 °F 32.0 °F 57% 30.06 in 10.0 mi West 10.4 mph 16.1 mph N/A Rain Light Rain
1:15 AM 44.6 °F 38.8 °F 33.8 °F 66% 30.04 in 10.0 mi West 11.5 mph - 0.01 in Rain Light Rain
1:35 AM 44.6 °F - 33.8 °F 66% 30.03 in 10.0 mi Calm Calm - 0.01 in Rain Light Rain
1:55 AM 44.6 °F - 33.8 °F 66% 30.00 in 10.0 mi Calm Calm - 0.01 in   Overcast
2:15 AM 44.6 °F 43.1 °F 35.6 °F 71% 29.96 in 10.0 mi ESE 3.5 mph - N/A   Light Drizzle
2:35 AM 44.6 °F 38.8 °F 35.6 °F 71% 29.96 in 10.0 mi WSW 11.5 mph - N/A   Overcast
2:55 AM 46.4 °F 41.9 °F 37.4 °F 71% 29.93 in 10.0 mi WNW 9.2 mph - N/A   Overcast
3:15 AM 46.4 °F - 37.4 °F 71% 29.93 in 10.0 mi Calm Calm - N/A Rain Light Rain
3:35 AM 46.4 °F 40.4 °F 39.2 °F 76% 29.92 in 10.0 mi SW 13.8 mph 28.8 mph N/A   Overcast
3:55 AM 46.4 °F 45.2 °F 41.0 °F 81% 29.91 in 10.0 mi West 3.5 mph - 0.02 in Rain Rain
4:15 AM 46.4 °F 42.4 °F 42.8 °F 87% 29.88 in 10.0 mi SSW 8.1 mph - 0.06 in Rain Rain
4:35 AM 46.4 °F 44.3 °F 42.8 °F 87% 29.84 in 10.0 mi West 4.6 mph 19.6 mph 0.11 in Rain Rain
4:55 AM 50.0 °F - 42.8 °F 76% 29.81 in 10.0 mi WNW 3.5 mph 16.1 mph 0.15 in Rain Light Rain
5:15 AM 51.8 °F - 44.6 °F 76% 29.78 in 10.0 mi SSE 5.8 mph 19.6 mph 0.01 in Rain Light Rain
5:35 AM 51.8 °F - 44.6 °F 76% 29.77 in 10.0 mi South 15.0 mph 23.0 mph 0.02 in Rain Light Rain
5:55 AM 51.8 °F - 44.6 °F 76% 29.77 in 10.0 mi SSE 20.7 mph 28.8 mph 0.02 in Rain Light Rain
6:15 AM 51.8 °F - 44.6 °F 76% 29.75 in 10.0 mi WSW 6.9 mph 13.8 mph N/A   Light Drizzle
6:35 AM 51.8 °F - 44.6 °F 76% 29.75 in 7.0 mi SW 10.4 mph 18.4 mph 0.02 in Rain Light Rain
6:55 AM 50.0 °F - 44.6 °F 82% 29.76 in 7.0 mi SW 10.4 mph 21.9 mph 0.05 in Rain Heavy Rain
7:15 AM 48.2 °F - 44.6 °F 87% 29.74 in 7.0 mi SW 11.5 mph 17.3 mph 0.02 in Rain Rain
7:35 AM 48.2 °F - 44.6 °F 87% 29.73 in 10.0 mi WSW 9.2 mph 16.1 mph 0.06 in Rain Rain
7:55 AM 48.2 °F - 44.6 °F 87% 29.72 in 7.0 mi WSW 11.5 mph 17.3 mph 0.10 in Rain Rain
8:15 AM 48.2 °F - 42.8 °F 82% 29.70 in 10.0 mi SW 12.7 mph 16.1 mph 0.02 in Rain Light Rain
8:35 AM 48.2 °F - 42.8 °F 82% 29.68 in 10.0 mi WSW 12.7 mph 18.4 mph 0.02 in   Overcast
8:55 AM 48.2 °F - 42.8 °F 82% 29.69 in 10.0 mi SSW 11.5 mph 19.6 mph 0.02 in   Overcast
9:15 AM 48.2 °F - 42.8 °F 82% 29.69 in 10.0 mi SSW 8.1 mph - N/A Rain Light Rain
9:35 AM 46.4 °F 42.9 °F 44.6 °F 93% 29.70 in 7.0 mi WSW 6.9 mph 19.6 mph 0.01 in Rain Light Rain
9:55 AM 46.4 °F 39.8 °F 44.6 °F 93% 29.71 in 7.0 mi SW 16.1 mph 21.9 mph 0.03 in Rain Light Rain
10:15 AM 46.4 °F 41.5 °F 42.8 °F 87% 29.71 in 10.0 mi WSW 10.4 mph 21.9 mph N/A Rain Light Rain
10:35 AM 46.4 °F 42.4 °F 42.8 °F 87% 29.72 in 10.0 mi SW 8.1 mph 21.9 mph 0.01 in   Overcast
10:55 AM 46.4 °F 39.8 °F 42.8 °F 87% 29.72 in 10.0 mi WSW 16.1 mph 23.0 mph 0.01 in   Overcast
11:15 AM 46.4 °F 40.1 °F 42.8 °F 87% 29.71 in 10.0 mi SW 15.0 mph 24.2 mph N/A   Overcast
11:55 AM 46.4 °F 39.5 °F 37.4 °F 71% 29.72 in 10.0 mi WSW 17.3 mph 24.2 mph N/A   Overcast
12:15 PM 44.6 °F 37.4 °F 37.4 °F 76% 29.71 in 10.0 mi SW 16.1 mph 23.0 mph N/A   Overcast
12:35 PM 44.6 °F 38.1 °F 37.4 °F 76% 29.71 in 10.0 mi SW 13.8 mph 23.0 mph N/A   Overcast
1:15 PM 44.6 °F 38.1 °F 37.4 °F 76% 29.71 in 10.0 mi WSW 13.8 mph 21.9 mph N/A   Drizzle
1:35 PM 42.8 °F 35.4 °F 39.2 °F 87% 29.71 in 5.0 mi SW 15.0 mph 19.6 mph N/A Rain Light Rain
1:55 PM 42.8 °F 37.0 °F 39.2 °F 87% 29.71 in 5.0 mi SW 10.4 mph 18.4 mph N/A Rain Rain
2:15 PM 42.8 °F 35.8 °F 39.2 °F 87% 29.71 in 10.0 mi SW 13.8 mph 17.3 mph 0.01 in Rain Light Rain
2:35 PM 42.8 °F 35.4 °F 39.2 °F 87% 29.73 in 10.0 mi SW 15.0 mph 20.7 mph 0.01 in Rain Light Rain
2:55 PM 42.8 °F 37.0 °F 37.4 °F 81% 29.73 in 10.0 mi WSW 10.4 mph - 0.01 in   Light Drizzle
3:15 PM 42.8 °F 37.0 °F 37.4 °F 81% 29.75 in 10.0 mi WSW 10.4 mph 19.6 mph N/A Rain Light Rain
3:35 PM 41.0 °F 34.7 °F 37.4 °F 87% 29.76 in 10.0 mi SW 10.4 mph 18.4 mph N/A   Drizzle
3:55 PM 41.0 °F 34.3 °F 37.4 °F 87% 29.77 in 7.0 mi SW 11.5 mph 17.3 mph N/A   Drizzle
4:15 PM 41.0 °F 34.7 °F 35.6 °F 81% 29.78 in 10.0 mi WSW 10.4 mph 17.3 mph N/A   Light Drizzle
4:35 PM 41.0 °F 37.1 °F 35.6 °F 81% 29.79 in 10.0 mi SSW 5.8 mph - N/A   Light Drizzle
4:55 PM 41.0 °F 36.4 °F 35.6 °F 81% 29.80 in 10.0 mi SW 6.9 mph - N/A   Overcast
5:15 PM 41.0 °F 34.7 °F 35.6 °F 81% 29.80 in 10.0 mi SSW 10.4 mph - N/A   Drizzle
5:35 PM 39.2 °F 33.6 °F 35.6 °F 87% 29.81 in 10.0 mi SSW 8.1 mph - N/A   Drizzle
5:55 PM 39.2 °F 33.6 °F 35.6 °F 87% 29.82 in 10.0 mi SW 8.1 mph - N/A   Drizzle
6:15 PM 39.2 °F 34.2 °F 35.6 °F 87% 29.84 in 10.0 mi SW 6.9 mph - N/A   Drizzle
6:55 PM 39.2 °F 33.0 °F 35.6 °F 87% 29.86 in 10.0 mi SW 9.2 mph - N/A Rain Light Rain
7:15 PM 39.2 °F 32.0 °F 35.6 °F 87% 29.88 in 10.0 mi West 11.5 mph 17.3 mph 0.01 in   Light Drizzle
7:35 PM 41.0 °F 35.8 °F 33.8 °F 76% 29.88 in 10.0 mi West 8.1 mph 18.4 mph 0.01 in   Overcast
7:55 PM 39.2 °F 34.2 °F 33.8 °F 81% 29.89 in 7.0 mi WSW 6.9 mph - 0.01 in   Drizzle
8:35 PM 37.4 °F 31.4 °F 33.8 °F 87% 29.90 in 10.0 mi West 8.1 mph - N/A Rain Rain
8:55 PM 37.4 °F 32.8 °F 33.8 °F 87% 29.91 in 10.0 mi West 5.8 mph - N/A Rain Light Rain
9:15 PM 37.4 °F 32.1 °F 32.0 °F 81% 29.92 in 10.0 mi West 6.9 mph - 0.01 in Rain Light Rain
9:35 PM 37.4 °F 30.3 °F 32.0 °F 81% 29.92 in 10.0 mi West 10.4 mph - 0.01 in   Light Drizzle
9:55 PM 39.2 °F 34.2 °F 32.0 °F 75% 29.90 in 10.0 mi NW 6.9 mph - 0.01 in   Light Drizzle
10:15 PM 37.4 °F 32.1 °F 32.0 °F 81% 29.90 in 10.0 mi WSW 6.9 mph - N/A   Overcast
10:35 PM 37.4 °F 29.3 °F 32.0 °F 81% 29.92 in 10.0 mi West 12.7 mph 18.4 mph N/A   Overcast
10:55 PM 37.4 °F 31.4 °F 32.0 °F 81% 29.91 in 10.0 mi West 8.1 mph - N/A   Light Drizzle
11:15 PM 37.4 °F 32.1 °F 32.0 °F 81% 29.91 in 10.0 mi WSW 6.9 mph - N/A Rain Light Rain
11:35 PM 35.6 °F 29.2 °F 33.8 °F 93% 29.92 in 10.0 mi West 8.1 mph - 0.01 in Rain Light Rain
11:55 PM 35.6 °F 27.5 °F 33.8 °F 93% 29.92 in 7.0 mi West 11.5 mph - 0.01 in Rain Rain